FW6982 Weather Reports


Display with metric or nautical units.
time (UTC)temp
F
wind
direction
speed
MPH
gust
MPH
rain 1hr
in
rain 24hr
in
rain mn
in
humidity
%
barometer
mb
20260906064543 0 0.0 0.0 0.00 0.00 0.00 1013.7
20260906063041 0 0.0 0.0 0.00 0.00 0.00 1013.7
20260906061542 0 0.0 0.0 0.00 0.00 0.00 1013.9
20260906060039 0 0.0 0.0 0.00 0.00 0.00 1014.3
20260906054539 0 0.0 0.0 0.00 0.00 0.00 1014.4
20260906053041 0 0.0 0.0 0.00 0.00 0.00 1014.7
20260906051541 0 0.0 0.0 0.00 0.00 0.00 1014.9
20260906050045 0 0.0 0.0 0.00 0.00 0.00 1014.9
20260906044542 0 0.0 0.0 0.00 0.00 0.00 1014.9
20260906043040 0 0.0 0.0 0.00 0.00 0.00 1014.9
20260906041541 0 0.0 0.0 0.00 0.00 0.00 1014.3
20260906040041 0 0.0 0.0 0.00 0.00 0.00 1014.5
20260906034538 0 0.0 0.0 0.00 0.00 0.00 1014.9
20260906033038 0 0.0 0.0 0.00 0.00 0.00 1015.1
20260906031540 0 0.0 0.0 0.00 0.00 0.00 1015.2
20260906030043 0 0.0 0.0 0.00 0.00 0.00 1015.0
20260906024541 0 0.0 0.0 0.00 0.00 0.00 1015.0
20260906023046 0 0.0 0.0 0.00 0.00 0.00 1014.8
20260906021544 0 0.0 0.0 0.00 0.00 0.00 1014.9
20260906020039 0 0.0 0.0 0.00 0.00 0.00 1014.7
20260906014548 0 0.0 0.0 0.00 0.00 0.00 1014.4
20260906013045 0 0.0 0.0 0.00 0.00 0.00 1014.3
20260906011540 0 0.0 0.0 0.00 0.00 0.00 1014.4
20260906010041 0 0.0 0.0 0.00 0.00 0.00 1014.4
20260906004537 0 0.0 0.0 0.00 0.00 0.00 1014.2
20260906003037 0 0.0 0.0 0.00 0.00 0.00 1014.1
20260906001539 0 0.0 0.0 0.00 0.00 0.00 1014.0
20260906000041 76 0.0 0.0 0.00 0.00 0.00 87 1013.7
20260905234540 76 0 0.0 0.0 0.00 0.00 0.00 86 1014.1
20260905233037 77 0 0.0 0.0 0.00 0.00 0.00 86 1013.9
20260905231537 76 0 0.0 0.0 0.00 0.00 0.00 86 1013.7
20260905230042 77 0 0.0 0.0 0.00 0.00 0.00 85 1013.6
20260905224535 78 0 0.0 0.0 0.00 0.00 0.00 84 1013.5
20260905223039 79 0 0.0 0.0 0.00 0.00 0.00 82 1013.5
20260905221541 78 0 0.0 0.0 0.00 0.00 0.00 85 1013.6
20260905220043 77 0 0.0 0.0 0.00 0.00 0.00 84 1013.7
20260905214542 78 0 0.0 0.0 0.00 0.00 0.00 84 1013.6
20260905213040 76 0 0.0 0.0 0.00 0.00 0.00 84 1013.7
20260905211542 76 0 0.0 0.0 0.00 0.00 0.00 85 1014.3
20260905210041 76 0 0.0 1.0 0.00 0.00 0.00 85 1015.0
20260905204542 75 0 0.0 1.0 0.00 0.00 0.00 85 1014.7
20260905203041 74 0 0.0 2.0 0.00 0.00 0.00 86 1014.6
20260905201541 73 0 0.0 3.0 0.00 0.00 0.00 86 1014.9
20260905200047 73 44 2.0 4.0 0.00 0.00 0.00 86 1015.0
20260905194547 73 38 1.0 4.0 0.00 0.00 0.00 86 1015.3
20260905193040 73 0 0.0 5.0 0.00 0.00 0.00 85 1016.0
20260905191545 73 0 0.0 2.0 0.00 0.00 0.00 83 1015.8
20260905190050 74 124 0.0 4.0 0.00 0.00 0.00 80 1016.2
20260905184547 74 0 0.0 6.0 0.00 0.00 0.00 79 1015.6
20260905183044 78 30 3.0 15.0 0.00 0.00 0.00 71 1015.7
20260905181539 88 321 5.0 17.0 0.00 0.00 0.00 53 1016.2
20260905180042 91 0 0.0 1.0 0.00 0.00 0.00 63 1015.6
20260905174543 93 165 0.0 4.0 0.00 0.00 0.00 53 1015.6
20260905173041 94 90 1.0 6.0 0.00 0.00 0.00 52 1015.5
20260905171547 94 217 1.0 4.0 0.00 0.00 0.00 51 1015.4
20260905170043 93 0 1.0 7.0 0.00 0.00 0.00 50 1015.6
20260905164542 94 224 1.0 4.0 0.00 0.00 0.00 53 1016.0
20260905163044 93 64 1.0 4.0 0.00 0.00 0.00 51 1016.2
20260905161540 92 52 2.0 4.0 0.00 0.00 0.00 53 1016.3
20260905160044 92 211 2.0 6.0 0.00 0.00 0.00 55 1016.3
20260905154543 91 159 0.0 3.0 0.00 0.00 0.00 61 1016.4
20260905153055 90 0 1.0 3.0 0.00 0.00 0.00 64 1016.4
20260905151542 89 230 2.0 4.0 0.00 0.00 0.00 60 1016.3
20260905150044 88 144 0.0 2.0 0.00 0.00 0.00 70 1016.6
20260905144542 86 0 0.0 3.0 0.00 0.00 0.00 69 1016.6
20260905143041 85 0 0.0 3.0 0.00 0.00 0.00 70 1016.6
20260905141554 83 0 0.0 0.0 0.00 0.00 0.00 76 1016.7
20260905140042 82 0 0.0 0.0 0.00 0.00 0.00 77 1016.8
20260905134539 80 0 0.0 0.0 0.00 0.00 0.00 81 1016.9
20260905133041 78 0 0.0 0.0 0.00 0.00 0.00 82 1016.8
20260905131541 77 0 0.0 0.0 0.00 0.00 0.00 86 1016.9
20260905130042 0 0.0 0.0 0.00 0.00 0.00 1017.0
20260905124541 0 0.0 0.0 0.00 0.00 0.00 1016.7
20260905123038 0 0.0 0.0 0.00 0.00 0.00 1016.4
20260905121539 0 0.0 0.0 0.00 0.00 0.00 1016.3
20260905120041 0 0.0 0.0 0.00 0.00 0.00 1016.3
20260905114548 0 0.0 0.0 0.00 0.00 0.00 1016.1
20260905113043 0 0.0 0.0 0.00 0.00 0.00 1015.9
20260905111544 0 0.0 0.0 0.00 0.00 0.00 1015.9
20260905110036 0 0.0 0.0 0.00 0.00 0.00 1015.6
20260905104544 0 0.0 0.0 0.00 0.00 0.00 1015.5
20260905103043 0 0.0 0.0 0.00 0.00 0.00 1015.6
20260905101540 0 0.0 0.0 0.00 0.00 0.00 1015.1
20260905100041 0 0.0 0.0 0.00 0.00 0.00 1015.2
20260905094540 0 0.0 0.0 0.00 0.00 0.00 1015.3
20260905093040 0 0.0 0.0 0.00 0.00 0.00 1015.4
20260905091539 0 0.0 0.0 0.00 0.00 0.00 1015.3
20260905084542 0 0.0 0.0 0.00 0.00 0.00 1015.7
20260905083047 0 0.0 0.0 0.00 0.00 0.00 1015.6
20260905081546 0 0.0 0.0 0.00 0.00 0.00 1015.4
20260905080047 0 0.0 0.0 0.00 0.00 0.00 1015.6
20260905074542 0 0.0 0.0 0.00 0.00 0.00 1015.8
20260905073041 0 0.0 0.0 0.00 0.00 0.00 1015.9
20260905071541 0 0.0 0.0 0.00 0.00 0.00 1015.9
20260905070046 0 0.0 0.0 0.00 0.00 0.00 1016.0